Regional Weather Roundup
Issued by NWS

Home | Current Version | Previous Version | Graphics & Text | Print | Product List | Glossary Off
Versions: 1 2 3 4 5 6 7 8 9 10 11 12 13 14 15 16 17 18 19 20 21 22 23 24 25 26 27 28 29 30 31 32 33 34 35 36 37 38 39 40 41 42 43 44 45 46 47 48 49 50

000
ASUS43 KMPX 241310
RWRMN
WEATHER ROUNDUP FOR MINNESOTA
NATIONAL WEATHER SERVICE TWIN CITIES/CHANHASSEN MN
700 AM CST FRI FEB 24 2017


NOTE: "FAIR" INDICATES FEW OR NO CLOUDS BELOW 12,000 FEET WITH NO
SIGNIFICANT WEATHER AND/OR OBSTRUCTIONS TO VISIBILITY. N/A MEANS
CURRENT SKY AND/OR WEATHER CONDITIONS ARE NOT AVAILABLE.

MNZ060>063-068>070-241400-
   Twin Cities Metro

CITY           SKY/WX    TMP DP  RH WIND       PRES   REMARKS
TWIN CITIES    CLOUDY    25  15  66 N14G23    29.82R WCI  13
ST PAUL        CLOUDY    26  18  71 N12       29.83R WCI  16
CRYSTAL        CLOUDY    24  13  62 N17       29.83R WCI  11
BLAINE         CLOUDY    27  18  69 N16G28    29.84R WCI  14
LAKEVILLE      CLOUDY    25  19  80 N16G24    29.79S WCI  12
EDEN PRAIRIE   CLOUDY    25  15  66 N13G24    29.81R WCI  14
SOUTH ST PAUL  CLOUDY    28  18  67 N13G18    29.81R WCI  17
LAKE ELMO      MOCLDY    28  19  69 N12G18    29.82R WCI  18
$$
MNZ001>005-007-008-013>017-022>024-027-028-241400-
   Northwest Minnesota

CITY           SKY/WX    TMP DP  RH WIND       PRES   REMARKS
BEMIDJI        CLOUDY     7   4  87 N5        30.03F WCI  -2
HALLOCK        CLOUDY    12   7  79 N8        30.15S WCI   1
ROSEAU         CLEAR      3   0  85 NW3       30.12R
WARROAD        CLEAR      3   0  85 NW3       30.11S
THIEF RVR FALL CLEAR     10   4  76 N8        30.11F WCI  -2
CROOKSTON      CLEAR     14   7  73 N6        30.14S WCI   5
FOSSTON        CLEAR      9   5  85 N10       30.08S WCI  -6
DETROIT LAKES  PTCLDY    14   9  79 N5        30.04S WCI   6
MOORHEAD       CLOUDY    18   9  68 N14       30.10S WCI   4
PARK RAPIDS    CLOUDY    12   3  67 N12       30.00S WCI  -2
MAHNOMEN       FAIR      13   6  74 N9        30.06F WCI   1
$$
MNZ006-009>011-018-025>026-241400-
   North Central Minnesota

CITY           SKY/WX    TMP DP  RH WIND       PRES   REMARKS
BAUDETTE       CLEAR      2  -1  88 NW6       30.08S WCI  -9
FLAG ISLAND    CLEAR      3   1  92 NW5       30.10R WCI  -6
INTL FALLS     CLOUDY     8   2  76 N6        30.05F WCI  -2
WASKISH        CLOUDY     7   3  85 N5        30.06S WCI  -2
BIG FORK       CLOUDY     9   5  85 N6        30.01F WCI  -1
LONGVILLE      CLOUDY    10   7  85 NW5       29.99F WCI   2
GRAND RAPIDS   CLOUDY    12   7  80 N10       29.99F WCI  -1
CRANE LAKE     CLOUDY     9   3  78 N5        30.06R WCI   0
ORR            CLOUDY    10   1  67 CALM      29.99R
COOK           CLOUDY    10   5  79 N5        30.00S WCI   2
WALKER         FAIR      10   5  82 N6        30.01F WCI   0
$$
MNZ012-019>021-037-241400-
   Northeast Minnesota

CITY           SKY/WX    TMP DP  RH WIND       PRES   REMARKS
DULUTH         CLOUDY    17  11  77 N10       29.92F WCI   5
ELY            CLOUDY    10   3  72 NE6       29.97S WCI   1
HIBBING        CLOUDY    12   6  77 N10       29.97S WCI  -1
EVELETH        CLOUDY    15   3  59 N6        29.98F WCI   6
DULUTH HARBOR  CLOUDY    23  16  74 NE18      29.97F WCI   9
TWO HARBORS    PTCLDY    19  10  68 N6        29.94F WCI  11
SILVER BAY     PTCLDY    18   9  68 N5        29.95F WCI  11
GRAND MARAIS     N/A     15   3  59 VRB3      30.04R
G MARAIS ARPRT CLOUDY     7  -2  66 N8        29.93S WCI  -6
$$
MNZ029>031-032-039>041-046>048-054>057-064-241400-
   West Central Minnesota

CITY           SKY/WX    TMP DP  RH WIND       PRES   REMARKS
FERGUS FALLS   PTCLDY    16   9  73 N13G18    30.08R WCI   2
WHEATON        CLOUDY    18  10  73 N17G25    30.06S WCI   2
MORRIS         CLOUDY    19  12  73 N20       29.98S WCI   4
ALEXANDRIA     CLOUDY    17   9  70 N15G23    29.96S WCI   2
ELBOW LAKE     FAIR      17  10  74 N12G18    30.01S WCI   4
WADENA         CLOUDY    12   9  85 N10       29.99R WCI  -1
GLENWOOD       CLOUDY    18  10  73 N17G25    29.95S WCI   2
APPLETON       CLOUDY    21  12  68 N22       29.98R WCI   5
BENSON         CLOUDY    21  10  63 NE17G28   29.97R WCI   7
ORTONVILLE     CLOUDY    19  10  68 N24       30.00S WCI   2
MADISON        CLOUDY    23  14  68 N23G29    29.98R WCI   7
WILLMAR        FAIR      23  16  74 N14G23    29.92R WCI  11
$$
MNZ033>034-036-042>043-049>051-058-059-241400-
   Central Minnesota

CITY           SKY/WX    TMP DP  RH WIND       PRES   REMARKS
ST CLOUD       CLOUDY    21  12  68 N20G28    29.90S WCI   6
SAUK CENTRE    FAIR      18  10  69 N15G23    29.94S WCI   4
PAYNESVILLE    CLOUDY    21  12  69 N15G24    29.91S WCI   7
AITKIN         CLOUDY    18  10  73 N12       29.95S WCI   5
PINE RIVER     CLOUDY    14   9  79 N10       30.02R WCI   1
BRAINERD       CLOUDY    16   9  74 N14       29.97S WCI   2
STAPLES        CLOUDY    14   9  79 N12       29.98S WCI   0
LONG PRAIRIE   FAIR      18  10  73 NW14G20   29.95S WCI   4
LITTLE FALLS   CLOUDY    19  10  68 N7        29.96S WCI  10
LITCHFIELD     CLOUDY    23  14  68 N16G24    29.89R WCI  10
BUFFALO        CLOUDY    23  13  67 N15       29.87S WCI  10
MAPLE LAKE     CLOUDY    23  16  73 N15G23    29.88F WCI  10
HUTCHINSON     CLOUDY    24  16  71 N14G25    29.87R WCI  11
$$
MNZ037-044-045-052-053-241400-
   East Central Minnesota

CITY           SKY/WX    TMP DP  RH WIND       PRES   REMARKS
PRINCETON      CLOUDY    23  12  63 N13G22    29.88S WCI  11
MORA           MOCLDY    21  12  68 N9G18     29.91F WCI  11
CAMBRIDGE      CLOUDY    25  12  58 N13G21    29.85F WCI  13
RUSH CITY      CLOUDY    23  16  74 N16G28    29.87F WCI  10
MOOSE LAKE     CLOUDY    19  14  79 N10       29.92S WCI   8
HINCKLEY       PTSUNNY   23  16  74 N13G20    29.90F WCI  11
CLOQUET        CLOUDY    18  12  79 N8        29.92F WCI   7
MCGREGOR       CLOUDY    18  14  86 N12       29.96S WCI   5
$$
MNZ071>073-080-081-089-090-097-098-241400-
   Southwest Minnesota

CITY           SKY/WX    TMP DP  RH WIND       PRES   REMARKS
MONTEVIDEO     CLOUDY    21  16  79 NE18      29.96R WCI   6
GRANITE FALLS  CLOUDY    24  17  73 N22       29.93R WCI   9
CANBY          CLOUDY    22  15  73 N21G29    29.96R WCI   6
MARSHALL       CLOUDY    21  15  78 N21G28    29.91R WCI   5
REDWOOD FALLS  CLOUDY    24  13  62 N13G23    29.88R WCI  12
OLIVIA         CLOUDY    23  16  74 N23G35    29.88S WCI   7
PIPESTONE      CLOUDY    21  14  73 NE20G31   29.85R WCI   6
WINDOM         CLOUDY    21  18  86 N25       29.81R WCI   4
WORTHINGTON    LGT SNOW  21  18  86 N26G33    29.81R FOG     WCI   4
JACKSON        LGT SNOW  23  19  86 VRB21G26  29.79R WCI   8
TRACY          CLOUDY    23  17  75 N23G30    29.88R WCI   8
SLAYTON        CLOUDY    20  17  88 N26G33    29.84R FOG     WCI   2
$$
MNZ065>067-074>077-082>085-091>093-241400-
   South Central Minnesota

CITY           SKY/WX    TMP DP  RH WIND       PRES   REMARKS
MANKATO        FLURRIES  25  18  74 N24G30    29.79R WCI   9
NEW ULM        CLOUDY    23  16  74 N15G21    29.82R WCI  10
ST JAMES       CLOUDY    23  19  86 N21G26    29.82R WCI   8
FAIRMONT       MIX PCPN  23  20  88 N24       29.76R FOG     WCI   7
GLENCOE        CLOUDY    25  19  77 N17G28    29.84R WCI  11
FARIBAULT      FLURRIES  25  21  86 N15G22    29.76F WCI  12
OWATONNA         N/A     25  21  86 N20G31    29.73R WCI  11
WASECA           N/A     25  21  86 N20       29.75R WCI  11
ALBERT LEA     CLOUDY    27  25  93 N21G28    29.68R FOG     WCI  13
$$
MNZ078>079-086>088-094>096-241400-
   Southeast Minnesota

CITY           SKY/WX    TMP DP  RH WIND       PRES   REMARKS
ROCHESTER      CLOUDY    26  25  96 N24G32    29.65F WCI  11
RED WING       LGT SNOW  28  23  80 NE9G17    29.76F WCI  20
STANTON        LGT SNOW  26  23  88 N18       29.76S WCI  13
DODGE CENTER     N/A     25  25 100 N21       29.68  WCI  10
WINONA         LGT SNOW  30  28  93 NE8       29.71F WCI  23
AUSTIN           N/A     27  25  93 N20G25    29.65S WCI  13
PRESTON          N/A     27  25  93 NE17G29   29.62F WCI  14
$$
ABBREVIATIONS USED IN REMARKS
   TC - TEMPERATURES IN CELSIUS
  WCI - WIND CHILL INDEX
   HX - HEAT INDEX
  VSB - VISIBILITY
$$




USA.gov is the U.S. government's official web portal to all federal, state and local government web resources and services.